,,Stat5,,Stat1,,Stat2,,Stat3,,Stat4,,Wind1,,Wind1,
time,status,PA1M_AVG,status,PR1M_SUM,status,RH1M_AVG,status,SR1M_AVG,status,TA1M_AVG,status,W1dAve1m,status,W1sAve1m,
2003-01-18, 00:00:01,VALID,919.629,VALID,0,VALID,92.494,VALID,-0.0339617,VALID,19.3649,VALID,81,VALID,0.770117,
2003-01-18, 00:01:00,VALID,919.637,VALID,0,VALID,92.5868,VALID,-0.0169808,VALID,19.3619,VALID,120,VALID,0.54043,
2003-01-18, 00:02:00,VALID,919.626,VALID,0,VALID,92.6809,VALID,0,VALID,19.3415,VALID,102,VALID,0.523649,
2003-01-18, 00:03:00,VALID,919.627,VALID,0,VALID,92.6733,VALID,-0.0339617,VALID,19.3587,VALID,75,VALID,0.954603,
2003-01-18, 00:04:00,VALID,919.626,VALID,0,VALID,92.5512,VALID,-0.0679233,VALID,19.342,VALID,61,VALID,1.02204,
2003-01-18, 00:05:00,VALID,919.619,VALID,0,VALID,92.48,VALID,-0.0849042,VALID,19.3296,VALID,51,VALID,0.523232,
2003-01-18, 00:06:00,VALID,919.604,VALID,0,VALID,92.6682,VALID,-0.0339617,VALID,19.2712,VALID,79,VALID,0.751524,
2003-01-18, 00:07:00,VALID,919.589,VALID,0,VALID,93.1883,VALID,-0.0679233,VALID,19.261,VALID,90,VALID,0.756579,
2003-01-18, 00:08:00,VALID,919.574,VALID,0,VALID,92.8996,VALID,-0.0169808,VALID,19.2799,VALID,74,VALID,0.292535,
2003-01-18, 00:09:00,VALID,919.572,VALID,0,VALID,92.8526,VALID,0.0679233,VALID,19.2628,VALID,58,VALID,0.376786,
2003-01-18, 00:10:00,VALID,919.573,VALID,0,VALID,92.9225,VALID,0.0849042,VALID,19.2536,VALID,94,VALID,0.76098,
2003-01-18, 00:11:00,VALID,919.58,VALID,0,VALID,93.1806,VALID,0.0679233,VALID,19.2637,VALID,89,VALID,0.900965,
2003-01-18, 00:12:00,VALID,919.596,VALID,0,VALID,93.1082,VALID,0.0509425,VALID,19.2868,VALID,90,VALID,0.801883,
2003-01-18, 00:13:00,VALID,919.609,VALID,0,VALID,93.234,VALID,0.0509425,VALID,19.2794,VALID,77,VALID,0.97973,
2003-01-18, 00:14:00,VALID,919.62,VALID,0,VALID,93.1628,VALID,0.0169808,VALID,19.309,VALID,85,VALID,0.980152,
2003-01-18, 00:15:00,VALID,919.636,VALID,0,VALID,92.9975,VALID,0.0339617,VALID,19.341,VALID,80,VALID,0.863692,
2003-01-18, 00:16:00,VALID,919.637,VALID,0,VALID,92.9378,VALID,0.0169808,VALID,19.3637,VALID,106,VALID,1.01067,
2003-01-18, 00:17:00,VALID,919.634,VALID,0,VALID,92.8767,VALID,0.0169808,VALID,19.3868,VALID,129,VALID,1.36637,
2003-01-18, 00:18:00,VALID,919.622,VALID,0,VALID,92.6084,VALID,0.0339617,VALID,19.4255,VALID,130,VALID,1.50082,
2003-01-18, 00:19:00,VALID,919.626,VALID,0,VALID,92.2931,VALID,0.0169808,VALID,19.4869,VALID,132,VALID,1.66667,
2003-01-18, 00:20:00,VALID,919.641,VALID,0,VALID,91.9294,VALID,0.0169808,VALID,19.5384,VALID,133,VALID,0.915752,
2003-01-18, 00:21:00,VALID,919.654,VALID,0,VALID,91.8213,VALID,0.0169808,VALID,19.5739,VALID,147,VALID,0.747243,
2003-01-18, 00:22:00,VALID,919.653,VALID,0,VALID,91.6687,VALID,0.0169808,VALID,19.5802,VALID,89,VALID,0.775586,
2003-01-18, 00:23:00,VALID,919.646,VALID,0,VALID,91.7259,VALID,0,VALID,19.5675,VALID,112,VALID,0.884415,
2003-01-18, 00:24:00,VALID,919.636,VALID,0,VALID,91.8976,VALID,0.0169808,VALID,19.5319,VALID,112,VALID,0.907278,
2003-01-18, 00:25:00,VALID,919.644,VALID,0,VALID,92.0438,VALID,0,VALID,19.5322,VALID,96,VALID,1.00082,
2003-01-18, 00:26:00,VALID,919.642,VALID,0,VALID,92.1392,VALID,0,VALID,19.5255,VALID,117,VALID,1.42832,
2003-01-18, 00:27:00,VALID,919.654,VALID,0,VALID,91.9955,VALID,0,VALID,19.5511,VALID,122,VALID,0.890008,
2003-01-18, 00:28:00,VALID,919.656,VALID,0,VALID,91.876,VALID,0.0169808,VALID,19.5839,VALID,147,VALID,0.868707,
2003-01-18, 00:29:00,VALID,919.669,VALID,0,VALID,91.7285,VALID,0.0679233,VALID,19.6157,VALID,142,VALID,1.125,
2003-01-18, 00:30:00,VALID,919.682,VALID,0,VALID,91.5479,VALID,0.0509425,VALID,19.6575,VALID,143,VALID,1.19618,
2003-01-18, 00:31:00,VALID,919.686,VALID,0,VALID,91.3419,VALID,0.0339617,VALID,19.6932,VALID,136,VALID,1.59006,
2003-01-18, 00:32:00,VALID,919.714,VALID,0,VALID,91.0418,VALID,0.0169808,VALID,19.7482,VALID,137,VALID,1.38948,
2003-01-18, 00:33:00,VALID,919.724,VALID,0,VALID,90.8116,VALID,0.0339617,VALID,19.8066,VALID,124,VALID,0.92103,
2003-01-18, 00:34:00,VALID,919.734,VALID,0,VALID,90.6489,VALID,0.0339617,VALID,19.8421,VALID,126,VALID,0.995683,
2003-01-18, 00:35:00,VALID,919.727,VALID,0,VALID,90.5052,VALID,0.0339617,VALID,19.8677,VALID,119,VALID,1.18011,
2003-01-18, 00:36:00,VALID,919.706,VALID,0,VALID,90.4022,VALID,0.0509425,VALID,19.9033,VALID,106,VALID,0.809766,
2003-01-18, 00:37:00,VALID,919.694,VALID,0,VALID,90.3653,VALID,0.0169808,VALID,19.916,VALID,143,VALID,1.34848,
2003-01-18, 00:38:00,VALID,919.674,VALID,0,VALID,90.3233,VALID,-0.0169808,VALID,19.9326,VALID,128,VALID,1.49578,
2003-01-18, 00:39:00,VALID,919.676,VALID,0,VALID,90.2814,VALID,-0.0679233,VALID,19.9528,VALID,127,VALID,0.994721,
2003-01-18, 00:40:00,VALID,919.674,VALID,0,VALID,90.3132,VALID,-0.0679233,VALID,19.9558,VALID,142,VALID,1.00971,
2003-01-18, 00:41:00,VALID,919.674,VALID,0,VALID,90.1987,VALID,-0.0679233,VALID,19.9724,VALID,134,VALID,1.47143,
2003-01-18, 00:42:00,VALID,919.683,VALID,0,VALID,90.1555,VALID,-0.0849042,VALID,19.9856,VALID,159,VALID,0.774465,
2003-01-18, 00:43:00,VALID,919.685,VALID,0,VALID,90.1746,VALID,-0.0849042,VALID,19.9985,VALID,114,VALID,0.585515,
2003-01-18, 00:44:00,VALID,919.675,VALID,0,VALID,90.1758,VALID,-0.0849042,VALID,19.995,VALID,110,VALID,0.694468,
2003-01-18, 00:45:00,VALID,919.665,VALID,0,VALID,90.214,VALID,-0.0849042,VALID,19.9878,VALID,117,VALID,1.022,
2003-01-18, 00:46:00,VALID,919.657,VALID,0,VALID,90.139,VALID,-0.0849042,VALID,20.0018,VALID,120,VALID,1.06803,
2003-01-18, 00:47:00,VALID,919.655,VALID,0,VALID,90.0805,VALID,-0.0849042,VALID,20.0015,VALID,130,VALID,1.12521,
2003-01-18, 00:48:00,VALID,919.641,VALID,0,VALID,90.0868,VALID,-0.0849042,VALID,20.0274,VALID,133,VALID,1.06332,
2003-01-18, 00:49:00,VALID,919.632,VALID,0,VALID,90.1402,VALID,-0.101885,VALID,20.0338,VALID,120,VALID,0.764757,
2003-01-18, 00:50:00,VALID,919.63,VALID,0,VALID,90.1351,VALID,-0.0849042,VALID,20.0308,VALID,114,VALID,1.1875,
2003-01-18, 00:51:00,VALID,919.622,VALID,0,VALID,90.1949,VALID,-0.0849042,VALID,20.0142,VALID,121,VALID,1.08203,
2003-01-18, 00:52:00,VALID,919.604,VALID,0,VALID,90.3005,VALID,-0.0679233,VALID,20.0109,VALID,136,VALID,1.19824,
2003-01-18, 00:53:00,VALID,919.582,VALID,0,VALID,90.2267,VALID,-0.0339617,VALID,20.004,VALID,135,VALID,1.32813,
2003-01-18, 00:54:00,VALID,919.562,VALID,0,VALID,90.0906,VALID,0.0509425,VALID,20.0032,VALID,148,VALID,1.41057,
2003-01-18, 00:55:00,VALID,919.531,VALID,0,VALID,90.1555,VALID,0,VALID,20.0194,VALID,124,VALID,0.737253,
2003-01-18, 00:56:00,VALID,919.523,VALID,0,VALID,90.2127,VALID,0.0169808,VALID,20.0032,VALID,101,VALID,0.835352,
2003-01-18, 00:57:00,VALID,919.515,VALID,0,VALID,90.4263,VALID,0.0679233,VALID,19.9801,VALID,51,VALID,0.753701,
2003-01-18, 00:58:00,VALID,919.502,VALID,0,VALID,90.5688,VALID,0.0339617,VALID,19.9572,VALID,94,VALID,0.727648,
2003-01-18, 00:59:00,VALID,919.492,VALID,0,VALID,90.6667,VALID,0.0679233,VALID,19.9413,VALID,88,VALID,0.424831,
2003-01-18, 01:00:00,VALID,919.469,VALID,0,VALID,90.8244,VALID,0.0509425,VALID,19.919,VALID,101,VALID,0.740402,
2003-01-18, 01:01:00,VALID,919.439,VALID,0,VALID,90.9846,VALID,0.0509425,VALID,19.8899,VALID,110,VALID,0.641276,
2003-01-18, 01:02:00,VALID,919.402,VALID,0,VALID,91.1283,VALID,0.0679233,VALID,19.87,VALID,101,VALID,0.659299,
2003-01-18, 01:03:00,VALID,919.354,VALID,0,VALID,91.2758,VALID,0.0169808,VALID,19.8441,VALID,116,VALID,0.693412,
2003-01-18, 01:04:00,VALID,919.324,VALID,0,VALID,91.4284,VALID,0,VALID,19.8188,VALID,94,VALID,0.929688,
2003-01-18, 01:05:00,VALID,919.286,VALID,0,VALID,91.4347,VALID,0.0339617,VALID,19.8128,VALID,109,VALID,0.925676,
2003-01-18, 01:06:00,VALID,919.253,VALID,0,VALID,91.4678,VALID,0.0849042,VALID,19.7763,VALID,112,VALID,0.739648,
2003-01-18, 01:07:00,VALID,919.237,VALID,0,VALID,91.4754,VALID,0,VALID,19.7865,VALID,104,VALID,0.608347,
2003-01-18, 01:08:00,VALID,919.223,VALID,0,VALID,91.5072,VALID,0.0169808,VALID,19.786,VALID,115,VALID,0.523015,
2003-01-18, 01:09:00,VALID,919.214,VALID,0,VALID,91.5581,VALID,0.0169808,VALID,19.78,VALID,139,VALID,0.649916,
2003-01-18, 01:10:00,VALID,919.198,VALID,0,VALID,91.5225,VALID,0.0339617,VALID,19.7663,VALID,166,VALID,0.553843,
2003-01-18, 01:11:00,VALID,919.182,VALID,0,VALID,91.5365,VALID,0.0509425,VALID,19.7832,VALID,202,VALID,0.631473,
2003-01-18, 01:12:00,VALID,919.183,VALID,0,VALID,91.6306,VALID,0.0509425,VALID,19.7601,VALID,229,VALID,0.594778,
2003-01-18, 01:13:00,VALID,919.177,VALID,0,VALID,91.7107,VALID,0.0849042,VALID,19.7276,VALID,250,VALID,0.709248,
2003-01-18, 01:14:00,VALID,919.181,VALID,0,VALID,91.7577,VALID,0,VALID,19.7116,VALID,241,VALID,0.559966,
2003-01-18, 01:15:00,VALID,919.176,VALID,0,VALID,92.0909,VALID,0.0339617,VALID,19.7054,VALID,243,VALID,1.02426,
2003-01-18, 01:16:00,VALID,919.14,VALID,0,VALID,92.4914,VALID,0.0339617,VALID,19.6438,VALID,252,VALID,1.17645,
2003-01-18, 01:17:00,VALID,919.12,VALID,0,VALID,92.5054,VALID,0.0509425,VALID,19.5794,VALID,278,VALID,1.17804,
2003-01-18, 01:18:00,VALID,919.104,VALID,0,VALID,92.7839,VALID,0.0169808,VALID,19.5409,VALID,274,VALID,0.640831,
2003-01-18, 01:19:00,VALID,919.081,VALID,0,VALID,92.967,VALID,0.0509425,VALID,19.5083,VALID,220,VALID,0.415799,
2003-01-18, 01:20:00,VALID,919.058,VALID,0,VALID,93.0929,VALID,0.0509425,VALID,19.4889,VALID,277,VALID,0.1856,
2003-01-18, 01:21:00,VALID,919.033,VALID,0,VALID,93.1806,VALID,0.0509425,VALID,19.4855,VALID,279,VALID,0,
2003-01-18, 01:22:00,VALID,919.002,VALID,0,VALID,93.2048,VALID,0.0679233,VALID,19.4889,VALID,279,VALID,0,
2003-01-18, 01:23:00,VALID,918.965,VALID,0,VALID,93.2302,VALID,0.0509425,VALID,19.4656,VALID,279,VALID,0,
2003-01-18, 01:24:00,VALID,918.928,VALID,0,VALID,93.3561,VALID,0,VALID,19.4499,VALID,279,VALID,0,
2003-01-18, 01:25:00,VALID,918.904,VALID,0,VALID,93.4019,VALID,0,VALID,19.4442,VALID,279,VALID,0,
2003-01-18, 01:26:00,VALID,918.872,VALID,0,VALID,93.4362,VALID,0,VALID,19.431,VALID,279,VALID,0,
2003-01-18, 01:27:00,VALID,918.867,VALID,0,VALID,93.6066,VALID,0,VALID,19.4315,VALID,279,VALID,0,
2003-01-18, 01:28:00,VALID,918.859,VALID,0,VALID,93.7122,VALID,0,VALID,19.4054,VALID,280,VALID,0.182509,
2003-01-18, 01:29:00,VALID,918.862,VALID,0,VALID,93.7045,VALID,0.0169808,VALID,19.3567,VALID,280,VALID,0.257601,
2003-01-18, 01:30:00,VALID,918.871,VALID,0,VALID,93.9194,VALID,0,VALID,19.3043,VALID,280,VALID,0.183811,
2003-01-18, 01:31:00,VALID,918.844,VALID,0,VALID,94.1076,VALID,0.0169808,VALID,19.2789,VALID,280,VALID,0.185764,
2003-01-18, 01:32:00,VALID,918.84,VALID,0,VALID,94.2691,VALID,0,VALID,19.2471,VALID,280,VALID,0.141578,
2003-01-18, 01:33:00,VALID,918.816,VALID,0,VALID,94.3747,VALID,0,VALID,19.2238,VALID,280,VALID,0.0825591,
2003-01-18, 01:34:00,VALID,918.798,VALID,0,VALID,94.479,VALID,0.0339617,VALID,19.1979,VALID,280,VALID,0.213816,
2003-01-18, 01:35:00,VALID,918.798,VALID,0,VALID,94.5171,VALID,0.0169808,VALID,19.1465,VALID,48,VALID,0.58087,
2003-01-18, 01:36:00,VALID,918.778,VALID,0,VALID,94.7091,VALID,0,VALID,19.1045,VALID,62,VALID,0.705273,
2003-01-18, 01:37:00,VALID,918.758,VALID,0,VALID,95.1567,VALID,0.0169808,VALID,19.0856,VALID,69,VALID,0.633018,
2003-01-18, 01:38:00,VALID,918.745,VALID,0,VALID,95.2966,VALID,0,VALID,19.0793,VALID,69,VALID,0.603252,
2003-01-18, 01:39:00,VALID,918.71,VALID,0,VALID,95.4555,VALID,0.0169808,VALID,19.089,VALID,85,VALID,0.550253,
2003-01-18, 01:40:00,VALID,918.69,VALID,0,VALID,95.4034,VALID,0.0169808,VALID,19.1045,VALID,131,VALID,0.513936,
2003-01-18, 01:41:00,VALID,918.644,VALID,0,VALID,95.1682,VALID,-0.0169808,VALID,19.1604,VALID,135,VALID,0.239955,
2003-01-18, 01:42:00,VALID,918.633,VALID,0,VALID,94.9342,VALID,0,VALID,19.1894,VALID,113,VALID,0.303454,
2003-01-18, 01:43:00,VALID,918.61,VALID,0,VALID,94.4904,VALID,-0.0339617,VALID,19.1604,VALID,80,VALID,0.471284,
2003-01-18, 01:44:00,VALID,918.604,VALID,0,VALID,94.7256,VALID,0,VALID,19.1243,VALID,89,VALID,0.792441,
2003-01-18, 01:45:00,VALID,918.582,VALID,0,VALID,94.8909,VALID,0.0169808,VALID,19.1216,VALID,122,VALID,0.777138,
2003-01-18, 01:46:00,VALID,918.562,VALID,0,VALID,94.8757,VALID,0.0169808,VALID,19.0791,VALID,141,VALID,0.970465,
2003-01-18, 01:47:00,VALID,918.549,VALID,0,VALID,94.999,VALID,0.0169808,VALID,19.0533,VALID,133,VALID,0.724918,
2003-01-18, 01:48:00,VALID,918.537,VALID,0,VALID,95.0588,VALID,0.0339617,VALID,19.0535,VALID,127,VALID,0.787829,
2003-01-18, 01:49:00,VALID,918.519,VALID,0,VALID,95.0194,VALID,0,VALID,19.0463,VALID,115,VALID,0.650391,
2003-01-18, 01:50:00,VALID,918.501,VALID,0,VALID,94.9355,VALID,0,VALID,19.0533,VALID,81,VALID,0.673775,
2003-01-18, 01:51:00,VALID,918.495,VALID,0,VALID,94.8859,VALID,0,VALID,19.0272,VALID,68,VALID,0.784926,
2003-01-18, 01:52:00,VALID,918.474,VALID,0,VALID,94.9431,VALID,0.0509425,VALID,19.0011,VALID,62,VALID,0.530078,
2003-01-18, 01:53:00,VALID,918.465,VALID,0,VALID,95.102,VALID,-0.0169808,VALID,18.9697,VALID,73,VALID,0.470954,
2003-01-18, 01:54:00,VALID,918.458,VALID,0,VALID,95.2737,VALID,-0.0849042,VALID,18.9608,VALID,90,VALID,0.740543,
2003-01-18, 01:55:00,VALID,918.465,VALID,0,VALID,95.3729,VALID,-0.0679233,VALID,18.9709,VALID,110,VALID,0.788035,
2003-01-18, 01:56:00,VALID,918.49,VALID,0,VALID,95.2864,VALID,-0.0679233,VALID,18.9672,VALID,89,VALID,0.916406,
2003-01-18, 01:57:00,VALID,918.507,VALID,0,VALID,95.3144,VALID,-0.0849042,VALID,18.9774,VALID,95,VALID,1.08635,
2003-01-18, 01:58:00,VALID,918.512,VALID,0,VALID,95.4835,VALID,-0.0849042,VALID,18.9809,VALID,123,VALID,0.91428,
2003-01-18, 01:59:00,VALID,918.498,VALID,0,VALID,95.4911,VALID,-0.0849042,VALID,18.9901,VALID,128,VALID,1.04012,
2003-01-18, 02:00:00,VALID,918.489,VALID,0,VALID,95.4021,VALID,-0.101885,VALID,18.9965,VALID,130,VALID,0.742188,
2003-01-18, 02:01:00,VALID,918.476,VALID,0,VALID,95.2737,VALID,-0.101885,VALID,18.9776,VALID,107,VALID,0.400174,
2003-01-18, 02:02:00,VALID,918.46,VALID,0,VALID,94.6938,VALID,-0.0679233,VALID,18.9294,VALID,103,VALID,0.0173399,
2003-01-18, 02:03:00,VALID,918.47,VALID,0,VALID,94.6951,VALID,-0.0849042,VALID,18.8648,VALID,103,VALID,0,
2003-01-18, 02:04:00,VALID,918.479,VALID,0,VALID,95.0588,VALID,-0.101885,VALID,18.8417,VALID,47,VALID,0.0956003,
2003-01-18, 02:05:00,VALID,918.469,VALID,0,VALID,95.1249,VALID,-0.0849042,VALID,18.8258,VALID,36,VALID,0.00211149,
2003-01-18, 02:06:00,VALID,918.475,VALID,0,VALID,95.1987,VALID,0.0169808,VALID,18.8017,VALID,36,VALID,0,
2003-01-18, 02:07:00,VALID,918.469,VALID,0,VALID,95.3475,VALID,0.0169808,VALID,18.7888,VALID,36,VALID,0,
2003-01-18, 02:08:00,VALID,918.488,VALID,0,VALID,94.7829,VALID,0.0169808,VALID,18.7473,VALID,36,VALID,0.0565878,
2003-01-18, 02:09:00,VALID,918.501,VALID,0,VALID,94.7142,VALID,-0.0509425,VALID,18.6543,VALID,36,VALID,0,
2003-01-18, 02:10:00,VALID,918.508,VALID,0,VALID,95.1376,VALID,-0.0509425,VALID,18.6252,VALID,36,VALID,0.00612331,
2003-01-18, 02:11:00,VALID,918.507,VALID,0,VALID,95.1732,VALID,-0.0849042,VALID,18.5929,VALID,35,VALID,0.000223214,
2003-01-18, 02:12:00,VALID,918.492,VALID,0,VALID,95.2152,VALID,-0.0679233,VALID,18.5509,VALID,25,VALID,0.261719,
2003-01-18, 02:13:00,VALID,918.502,VALID,0,VALID,94.9482,VALID,-0.0849042,VALID,18.4836,VALID,360,VALID,0.394426,
2003-01-18, 02:14:00,VALID,918.49,VALID,0,VALID,94.8312,VALID,-0.0339617,VALID,18.3767,VALID,360,VALID,0.360853,
2003-01-18, 02:15:00,VALID,918.467,VALID,0,VALID,95.3831,VALID,-0.0679233,VALID,18.328,VALID,360,VALID,0.182566,
2003-01-18, 02:16:00,VALID,918.436,VALID,0,VALID,96.2465,VALID,-0.0679233,VALID,18.3837,VALID,360,VALID,0.294017,
2003-01-18, 02:17:00,VALID,918.37,VALID,0,VALID,96.6051,VALID,-0.0849042,VALID,18.3954,VALID,223,VALID,0.522821,
2003-01-18, 02:18:00,VALID,918.325,VALID,0,VALID,96.8772,VALID,-0.0679233,VALID,18.4353,VALID,204,VALID,0.433799,
2003-01-18, 02:19:00,VALID,918.298,VALID,0,VALID,97.0056,VALID,-0.101885,VALID,18.4547,VALID,177,VALID,0.353082,
2003-01-18, 02:20:00,VALID,918.265,VALID,0,VALID,96.9649,VALID,-0.0679233,VALID,18.4319,VALID,173,VALID,0.129434,
2003-01-18, 02:21:00,VALID,918.28,VALID,0,VALID,96.8479,VALID,-0.101885,VALID,18.409,VALID,169,VALID,0.0765165,
2003-01-18, 02:22:00,VALID,918.288,VALID,0,VALID,96.352,VALID,-0.0849042,VALID,18.3119,VALID,103,VALID,0.305078,
2003-01-18, 02:23:00,VALID,918.284,VALID,0,VALID,95.7811,VALID,-0.0849042,VALID,18.1665,VALID,47,VALID,0.639022,
2003-01-18, 02:24:00,VALID,918.289,VALID,0,VALID,96.188,VALID,-0.101885,VALID,18.0798,VALID,51,VALID,0.485197,
2003-01-18, 02:25:00,VALID,918.253,VALID,0,VALID,97.1824,VALID,-0.0679233,VALID,18.0793,VALID,95,VALID,0.81435,
2003-01-18, 02:26:00,VALID,918.225,VALID,0,VALID,97.6834,VALID,-0.0509425,VALID,18.1541,VALID,109,VALID,0.868555,
2003-01-18, 02:27:00,VALID,918.212,VALID,0,VALID,97.3846,VALID,-0.0849042,VALID,18.1608,VALID,120,VALID,0.655633,
2003-01-18, 02:28:00,VALID,918.183,VALID,0,VALID,97.246,VALID,-0.0849042,VALID,18.1218,VALID,129,VALID,0.426215,
2003-01-18, 02:29:00,VALID,918.166,VALID,0,VALID,97.5562,VALID,-0.101885,VALID,18.1188,VALID,140,VALID,0.574113,
2003-01-18, 02:30:00,VALID,918.142,VALID,0,VALID,97.8042,VALID,-0.101885,VALID,18.1578,VALID,159,VALID,0.432726,
2003-01-18, 02:31:00,VALID,918.133,VALID,0,VALID,97.719,VALID,-0.0849042,VALID,18.1707,VALID,159,VALID,0.413628,
2003-01-18, 02:32:00,VALID,918.141,VALID,0,VALID,97.5829,VALID,-0.101885,VALID,18.1543,VALID,155,VALID,0.546113,
2003-01-18, 02:33:00,VALID,918.144,VALID,0,VALID,97.616,VALID,-0.101885,VALID,18.1518,VALID,138,VALID,0.815667,
2003-01-18, 02:34:00,VALID,918.145,VALID,0,VALID,97.6859,VALID,-0.101885,VALID,18.1681,VALID,122,VALID,0.700041,
2003-01-18, 02:35:00,VALID,918.155,VALID,0,VALID,97.6452,VALID,-0.0849042,VALID,18.1644,VALID,116,VALID,0.540963,
2003-01-18, 02:36:00,VALID,918.172,VALID,0,VALID,97.2727,VALID,-0.101885,VALID,18.1453,VALID,84,VALID,0.750391,
2003-01-18, 02:37:00,VALID,918.172,VALID,0,VALID,97.0667,VALID,-0.101885,VALID,18.0671,VALID,68,VALID,1.10609,
2003-01-18, 02:38:00,VALID,918.177,VALID,0,VALID,97.5855,VALID,-0.0679233,VALID,18.1095,VALID,73,VALID,1.07791,
2003-01-18, 02:39:00,VALID,918.161,VALID,0,VALID,97.6224,VALID,-0.0849042,VALID,18.1511,VALID,76,VALID,1.18687,
2003-01-18, 02:40:00,VALID,918.173,VALID,0,VALID,97.3795,VALID,-0.0679233,VALID,18.1672,VALID,76,VALID,1.16111,
2003-01-18, 02:41:00,VALID,918.171,VALID,0,VALID,97.2561,VALID,-0.101885,VALID,18.1677,VALID,71,VALID,1.06562,
2003-01-18, 02:42:00,VALID,918.165,VALID,0,VALID,96.9573,VALID,-0.101885,VALID,18.1289,VALID,59,VALID,0.915502,
2003-01-18, 02:43:00,VALID,918.172,VALID,0,VALID,96.5593,VALID,-0.0849042,VALID,18.0544,VALID,59,VALID,0.552998,
2003-01-18, 02:44:00,VALID,918.179,VALID,0,VALID,96.4499,VALID,-0.101885,VALID,17.99,VALID,59,VALID,0.53864,
2003-01-18, 02:45:00,VALID,918.21,VALID,0,VALID,96.6292,VALID,-0.0679233,VALID,17.9478,VALID,59,VALID,0.360403,
2003-01-18, 02:46:00,VALID,918.222,VALID,0,VALID,96.8251,VALID,-0.0679233,VALID,17.9224,VALID,59,VALID,0.0697409,
2003-01-18, 02:47:00,VALID,918.237,VALID,0,VALID,97.1124,VALID,-0.0849042,VALID,17.922,VALID,59,VALID,0,
2003-01-18, 02:48:00,VALID,918.251,VALID,0,VALID,97.3286,VALID,-0.0849042,VALID,17.9579,VALID,59,VALID,0,
2003-01-18, 02:49:00,VALID,918.246,VALID,0,VALID,97.4927,VALID,-0.101885,VALID,18.0002,VALID,59,VALID,0,
2003-01-18, 02:50:00,VALID,918.231,VALID,0,VALID,97.7559,VALID,-0.101885,VALID,18.0516,VALID,59,VALID,0.302998,
2003-01-18, 02:51:00,VALID,918.208,VALID,0,VALID,98.0077,VALID,-0.0849042,VALID,18.1518,VALID,59,VALID,0.402574,
2003-01-18, 02:52:00,VALID,918.188,VALID,0,VALID,98.1577,VALID,-0.118866,VALID,18.2325,VALID,59,VALID,0.400586,
2003-01-18, 02:53:00,VALID,918.176,VALID,0,VALID,98.1145,VALID,-0.0509425,VALID,18.3165,VALID,59,VALID,0.031851,
2003-01-18, 02:54:00,VALID,918.18,VALID,0,VALID,97.6783,VALID,0,VALID,18.3054,VALID,59,VALID,0.00966283,
2003-01-18, 02:55:00,VALID,918.182,VALID,0,VALID,97.3273,VALID,0,VALID,18.2602,VALID,59,VALID,0.00945724,
2003-01-18, 02:56:00,VALID,918.18,VALID,0,VALID,97.1074,VALID,0,VALID,18.2344,VALID,59,VALID,0.0292969,
2003-01-18, 02:57:00,VALID,918.205,VALID,0,VALID,97.2129,VALID,0,VALID,18.2311,VALID,59,VALID,0,
2003-01-18, 02:58:01,VALID,918.201,VALID,0,VALID,97.3413,VALID,0.0169808,VALID,18.2634,VALID,59,VALID,0.0206163,
2003-01-18, 02:59:00,VALID,918.193,VALID,0,VALID,97.5066,VALID,0,VALID,18.3412,VALID,26,VALID,0.293074,
2003-01-18, 03:00:00,VALID,918.172,VALID,0,VALID,96.9382,VALID,0,VALID,18.331,VALID,300,VALID,0.735243,
2003-01-18, 03:01:00,VALID,918.153,VALID,0,VALID,97.1671,VALID,0.0169808,VALID,18.3924,VALID,279,VALID,1.03733,
2003-01-18, 03:02:01,VALID,918.173,VALID,0,VALID,97.3146,VALID,0.0169808,VALID,18.4704,VALID,269,VALID,1.02134,
2003-01-18, 03:03:00,VALID,918.187,VALID,0,VALID,97.2129,VALID,0.0339617,VALID,18.4829,VALID,264,VALID,0.838682,
2003-01-18, 03:04:01,VALID,918.212,VALID,0,VALID,97.1544,VALID,0.0169808,VALID,18.4831,VALID,249,VALID,0.603618,
2003-01-18, 03:05:00,VALID,918.223,VALID,0,VALID,97.1252,VALID,0.0339617,VALID,18.4573,VALID,248,VALID,0.371199,
2003-01-18, 03:06:01,VALID,918.239,VALID,0,VALID,97.1519,VALID,0.0169808,VALID,18.4284,VALID,248,VALID,0.269922,
2003-01-18, 03:07:00,VALID,918.239,VALID,0,VALID,97.2485,VALID,0,VALID,18.3862,VALID,248,VALID,0.340666,
2003-01-18, 03:08:00,VALID,918.255,VALID,0,VALID,97.3947,VALID,0,VALID,18.361,VALID,248,VALID,0.147382,
2003-01-18, 03:09:01,VALID,918.262,VALID,0,VALID,97.5372,VALID,-0.0509425,VALID,18.349,VALID,248,VALID,0,
2003-01-18, 03:10:00,VALID,918.252,VALID,0,VALID,97.6274,VALID,-0.0849042,VALID,18.3264,VALID,222,VALID,0.100043,
2003-01-18, 03:11:00,VALID,918.252,VALID,0,VALID,97.6402,VALID,-0.0849042,VALID,18.3137,VALID,170,VALID,0.276786,
2003-01-18, 03:12:01,VALID,918.25,VALID,0,VALID,97.869,VALID,-0.0849042,VALID,18.2969,VALID,119,VALID,0.318668,
2003-01-18, 03:13:00,VALID,918.242,VALID,0,VALID,97.9517,VALID,-0.0509425,VALID,18.2969,VALID,119,VALID,0.162796,
2003-01-18, 03:14:00,VALID,918.234,VALID,0,VALID,97.9606,VALID,-0.0679233,VALID,18.2807,VALID,119,VALID,0,
2003-01-18, 03:15:00,VALID,918.238,VALID,0,VALID,98.0725,VALID,-0.0849042,VALID,18.2713,VALID,119,VALID,0,
2003-01-18, 03:16:01,VALID,918.256,VALID,0,VALID,98.1437,VALID,-0.0679233,VALID,18.2747,VALID,119,VALID,0,
2003-01-18, 03:17:01,VALID,918.28,VALID,0,VALID,98.1691,VALID,-0.0679233,VALID,18.2777,VALID,119,VALID,0,
2003-01-18, 03:18:00,VALID,918.296,VALID,0,VALID,98.1806,VALID,-0.0509425,VALID,18.2715,VALID,119,VALID,0,
2003-01-18, 03:19:01,VALID,918.317,VALID,0,VALID,98.0471,VALID,-0.0849042,VALID,18.2417,VALID,126,VALID,0.10178,
2003-01-18, 03:20:01,VALID,918.322,VALID,0,VALID,97.9797,VALID,-0.0679233,VALID,18.2196,VALID,143,VALID,0.238176,
2003-01-18, 03:21:00,VALID,918.31,VALID,0,VALID,97.8958,VALID,-0.0509425,VALID,18.1875,VALID,121,VALID,0.306296,
2003-01-18, 03:22:00,VALID,918.332,VALID,0,VALID,98.0305,VALID,-0.0509425,VALID,18.1774,VALID,100,VALID,0.387109,
2003-01-18, 03:23:00,VALID,918.332,VALID,0,VALID,98.117,VALID,-0.0509425,VALID,18.1776,VALID,85,VALID,0.290465,
2003-01-18, 03:24:00,VALID,918.326,VALID,0,VALID,98.1437,VALID,-0.0509425,VALID,18.1714,VALID,85,VALID,0.174959,
2003-01-18, 03:25:00,VALID,918.333,VALID,0,VALID,98.234,VALID,0,VALID,18.1806,VALID,85,VALID,0.111842,
2003-01-18, 03:26:00,VALID,918.339,VALID,0,VALID,98.4082,VALID,-0.0509425,VALID,18.2263,VALID,106,VALID,0.261719,
2003-01-18, 03:27:00,VALID,918.335,VALID,0,VALID,98.4527,VALID,-0.0339617,VALID,18.2487,VALID,151,VALID,0.523643,
2003-01-18, 03:28:01,VALID,918.318,VALID,0,VALID,98.4069,VALID,-0.0339617,VALID,18.2745,VALID,161,VALID,0.493273,
2003-01-18, 03:29:00,VALID,918.305,VALID,0,VALID,98.3256,VALID,-0.0849042,VALID,18.2909,VALID,181,VALID,0.188978,
2003-01-18, 03:30:00,VALID,918.301,VALID,0,VALID,98.2582,VALID,-0.0169808,VALID,18.281,VALID,167,VALID,0.257813,
2003-01-18, 03:31:00,VALID,918.293,VALID,0,VALID,98.2963,VALID,-0.0509425,VALID,18.2775,VALID,186,VALID,0.33138,
2003-01-18, 03:32:01,VALID,918.279,VALID,0,VALID,98.3459,VALID,-0.0509425,VALID,18.3165,VALID,179,VALID,0.462652,